Weather History for Fullerton, CA

Change the Weather History Date:

Thursday, July 3, 2014

  Actual Average Record
Temperature  
Mean Temperature 78 °F 73 °F  
Max Temperature 88 °F 82 °F 93 °F (2003)
Min Temperature 68 °F 63 °F 60 °F (2010)
Degree Days  
Heating Degree Days 0 0  
Month to date heating degree days 0 0  
Since 1 June heating degree days 0 2  
Since 1 July heating degree days 0 0  
Cooling Degree Days 13 8  
Month to date cooling degree days 32 22  
Year to date cooling degree days 607 290  
Since 1 June cooling degree days 249 167  
Growing Degree Days 27 (Base 50)    
Moisture  
Dew Point 62 °F    
Average Humidity 62    
Maximum Humidity 81    
Minimum Humidity 42    
Precipitation  
Precipitation 0.00 in 0.00 in 0.00 in (2014)
Month to date precipitation 0.00 0.00  
Year to date precipitation 3.46 9.65  
Since 1 July precipitation 0.00 0.00  
Snow  
Snow 0.00 in - - ()
Month to date snowfall 0.0  
Year to date snowfall 0.0  
Since 1 July snowfall 0.0  
Snow Depth 0.00 in    
Sea Level Pressure  
Sea Level Pressure 29.88 in    
Wind  
Wind Speed 4 mph (SSW)    
Max Wind Speed 13 mph    
Max Gust Speed 17 mph    
Visibility 9 miles    
Events      
T = Trace of Precipitation, MM = Missing Value Source: NWS Daily Summary

Daily Weather History Graph

Daily Weather History Graph

Search for Another Location

Airport:

Trip Planner

Search our weather history database for the weather conditions in past years. The results will help you decide how hot, cold, wet, or windy it might be!

Date:

Astronomy

Jul. 03, 2014 Rise Set
Actual Time 5:45 AM PDT 8:06 PM PDT
Civil Twilight 5:16 AM PDT 8:35 PM PDT
Nautical Twilight 4:41 AM PDT 9:11 PM PDT
Astronomical Twilight 4:02 AM PDT 9:49 PM PDT
Moon 11:31 AM PDT (7/3) 11:50 PM PDT (7/3)
Length of Visible Light 15h 18m
Length of Day
14h 21m
Waxing Crescent, 34% of the Moon is Illuminated
Jul 3
Waxing Crescent
Jul 5
First Quarter
Jul 12
Full
Jul 18
Last Quarter
Jul 26
New

Hourly Weather History & Observations

Time (PDT) Temp. Heat Index Dew Point Humidity Pressure Visibility Wind Dir Wind Speed Gust Speed Precip Events Conditions
12:53 AM 68.0 °F - 61.0 °F 78% 29.88 in 10.0 mi Calm Calm - N/A   Clear
1:53 AM 68.0 °F - 62.1 °F 81% 29.88 in 9.0 mi Calm Calm - N/A   Scattered Clouds
2:02 AM 68.0 °F - 62.1 °F 81% 29.89 in 9.0 mi Calm Calm - N/A   Mostly Cloudy
2:53 AM 68.0 °F - 62.1 °F 81% 29.90 in 9.0 mi Calm Calm - N/A   Overcast
3:53 AM 68.0 °F - 63.0 °F 84% 29.89 in 7.0 mi Calm Calm - N/A   Overcast
4:53 AM 68.0 °F - 62.1 °F 81% 29.89 in 7.0 mi WNW 3.5 mph - N/A   Overcast
5:53 AM 68.0 °F - 62.1 °F 81% 29.90 in 7.0 mi Calm Calm - N/A   Overcast
7:53 AM 70.0 °F - 62.1 °F 76% 29.93 in 5.0 mi Variable 3.5 mph - N/A   Haze
8:53 AM 71.1 °F - 62.1 °F 73% 29.93 in 6.0 mi Variable 3.5 mph - N/A   Haze
9:08 AM 72.0 °F - 62.1 °F 71% 29.93 in 6.0 mi Calm Calm - N/A   Haze
9:53 AM 73.9 °F - 62.1 °F 66% 29.92 in 7.0 mi South 3.5 mph - N/A   Clear
10:53 AM 80.1 °F 81.2 °F 62.1 °F 54% 29.91 in 8.0 mi Variable 3.5 mph - N/A   Clear
12:53 PM 86.0 °F 86.8 °F 63.0 °F 46% 29.88 in 10.0 mi SSW 6.9 mph - N/A   Clear
1:53 PM 86.0 °F 86.8 °F 63.0 °F 46% 29.87 in 10.0 mi South 9.2 mph - N/A   Clear
2:53 PM 86.0 °F 86.1 °F 61.0 °F 43% 29.86 in 10.0 mi South 9.2 mph - N/A   Clear
3:53 PM 84.9 °F 85.4 °F 62.1 °F 46% 29.84 in 10.0 mi SSW 9.2 mph - N/A   Clear
5:53 PM 86.0 °F 86.8 °F 63.0 °F 46% 29.82 in 10.0 mi Variable 6.9 mph - N/A   Clear
6:53 PM 82.0 °F 83.0 °F 62.1 °F 51% 29.81 in 10.0 mi Variable 6.9 mph - N/A   Clear
7:53 PM 79.0 °F - 62.1 °F 56% 29.83 in 10.0 mi Variable 3.5 mph - N/A   Clear
8:53 PM 75.9 °F - 62.1 °F 62% 29.85 in 10.0 mi West 3.5 mph - N/A   Clear
9:53 PM 73.9 °F - 63.0 °F 68% 29.88 in 10.0 mi South 4.6 mph - N/A   Clear
10:53 PM 72.0 °F - 63.0 °F 73% 29.90 in 10.0 mi South 5.8 mph - N/A   Clear
11:53 PM 71.1 °F - 63.0 °F 75% 29.91 in 10.0 mi South 3.5 mph - N/A   Clear